Wind_Speed
17 17 17 17 17 16 16 15 15 14 13 13 12 12 12 11 12 12 14 14 16 17 19 20 20 20 19 18 18 17 16 16 17 19 21 23 24 23 21 18 16 16 17 19 19 20 20 20 21 21 21 21 21 20 20 19 19 20 21 22 24 25 24 23 22 22 23 25 27
16 16 16 16 16 16 15 15 15 15 15 15 14 14 13 12 12 13 13 13 14 15 16 17 18 18 18 18 18 18 19 20 23 24 25 25 23 20 17 16 16 17 18 19 20 20 21 21 22 22 22 22 21 20 20 20 21 22 23 24 24 23 23 23 24 26 28 29 30
15 15 15 16 16 15 14 13 14 15 16 16 16 15 14 13 14 14 14 14 15 15 16 17 17 18 19 18 19 20 21 23 25 26 25 22 19 17 16 16 17 18 19 20 21 21 22 23 23 23 23 23 22 22 22 22 23 24 25 25 24 24 25 27 28 29 30 29 29
13 14 14 15 15 15 14 14 14 15 15 16 16 16 15 15 15 15 14 15 16 17 17 18 18 19 19 19 18 19 21 23 24 23 20 18 16 16 17 18 19 20 20 21 22 23 23 23 24 24 24 24 23 23 23 24 24 25 26 26 26 28 29 30 30 30 29 28 27
12 13 14 14 14 15 15 15 14 14 14 14 15 15 16 16 16 16 15 15 16 16 17 17 18 18 17 17 17 18 20 21 20 19 17 16 16 17 18 19 20 21 22 22 23 23 23 24 24 24 24 24 24 24 24 25 25 26 26 27 28 29 30 29 29 28 27 25 25
12 13 13 13 13 13 13 13 13 13 13 14 14 15 15 16 16 16 15 14 15 15 15 15 16 16 16 16 17 18 18 18 17 16 16 17 18 19 20 21 22 22 22 23 23 23 24 24 24 24 24 25 25 25 25 26 26 27 28 29 29 29 29 28 27 26 25 24 24
12 12 12 12 11 11 11 11 12 12 12 13 13 14 14 15 16 16 15 15 15 15 15 15 15 15 16 16 16 16 16 16 16 17 18 19 20 21 22 22 23 23 23 23 23 24 24 24 25 25 25 25 26 26 26 27 27 28 28 29 29 28 27 26 25 24 24 24 24
11 11 11 11 10 10 10 10 10 10 10 10 11 11 12 13 13 14 14 15 15 15 15 16 16 16 16 16 16 16 16 17 17 18 19 20 21 22 22 23 23 23 23 24 24 24 25 25 26 26 26 26 26 27 27 27 28 29 29 28 28 26 25 24 24 24 24 24 25
11 11 11 11 10 10 10 10 9 9 9 9 9 9 10 10 11 12 12 13 13 14 14 15 15 15 16 16 16 16 17 17 18 19 19 20 21 21 22 22 23 23 24 25 25 26 26 26 26 27 27 27 27 27 28 28 29 29 28 27 26 25 24 24 24 24 25 25 26
12 12 12 12 11 11 11 11 11 10 10 10 10 10 10 10 10 11 11 11 12 12 13 13 14 14 14 15 15 15 16 17 17 18 19 19 20 21 21 22 23 24 25 25 26 26 26 27 27 27 27 27 28 28 29 29 29 28 27 26 25 24 24 24 24 25 25 26 26
14 13 13 13 13 13 13 13 13 12 12 12 12 11 11 11 11 11 12 12 12 12 13 13 13 14 14 14 15 15 16 17 17 18 19 19 20 21 22 23 24 25 25 26 26 26 26 27 27 27 28 28 28 29 29 28 28 26 25 24 24 24 24 24 25 25 25 26 26
15 15 15 15 15 14 14 14 14 14 14 13 13 13 13 12 12 12 13 13 13 13 14 14 14 15 15 16 16 17 17 18 19 19 20 21 21 22 22 23 24 25 25 25 25 26 26 26 26 27 27 28 28 27 27 26 25 24 23 23 23 23 23 24 24 24 25 25 25
16 16 16 15 15 15 15 15 15 15 14 14 14 13 13 13 13 13 13 13 14 14 15 15 16 16 17 17 18 18 19 19 20 20 21 21 22 22 22 23 23 24 24 24 24 24 25 25 26 26 26 26 25 25 23 22 21 20 20 20 21 21 22 22 23 23 24 24 23
15 15 15 15 15 15 15 15 15 15 14 14 14 14 13 13 14 14 14 14 14 15 16 16 17 17 18 18 19 19 20 20 20 20 20 21 21 21 22 22 22 22 23 23 23 23 23 23 24 24 24 23 22 21 19 18 18 18 18 19 19 20 20 21 21 21 22 22 21
14 14 14 14 14 14 14 14 14 14 14 13 13 13 13 14 14 14 14 15 16 16 17 17 18 18 19 19 20 20 20 20 20 20 20 20 20 20 21 21 21 21 21 21 21 21 21 21 21 20 20 19 18 17 16 16 16 16 17 17 18 18 18 19 19 19 19 19 19
13 13 13 13 14 14 14 14 13 13 13 13 14 14 14 14 15 15 15 16 17 17 18 18 19 19 19 20 20 20 20 20 20 19 20 20 20 20 20 20 20 20 19 19 18 18 18 17 17 16 16 15 15 15 15 15 15 16 16 16 16 16 17 17 17 17 17 17 17
13 13 13 13 13 13 13 13 13 13 14 14 14 14 15 15 16 16 17 17 17 18 18 18 19 19 19 20 20 19 19 18 18 18 18 19 19 19 18 17 17 16 16 15 15 15 14 14 14 13 13 13 13 14 14 14 15 14 14 15 15 15 15 16 16 16 16 16 16
13 13 13 13 13 13 14 14 14 14 14 15 15 15 16 16 16 17 17 17 17 17 17 18 18 18 18 18 17 16 16 15 15 15 15 15 15 14 13 12 12 12 12 12 12 12 12 12 12 12 13 13 13 13 14 14 13 13 13 14 14 14 15 15 15 15 15 15 15
13 13 13 14 14 14 14 14 14 15 15 15 15 16 16 16 16 16 16 16 16 16 16 15 15 15 14 14 13 13 13 12 12 12 12 11 10 9 9 9 9 10 10 11 11 11 12 12 12 12 12 12 13 13 13 13 13 13 13 13 13 14 14 14 13 13 13 13 13
14 14 14 14 14 14 14 14 14 14 15 15 15 15 15 15 14 14 14 14 13 12 12 11 10 10 10 11 10 10 11 10 10 9 8 7 7 7 8 8 9 10 10 11 11 11 11 11 12 12 12 12 12 12 12 12 12 12 12 12 12 12 12 11 11 10 10 9 9
14 14 14 13 13 13 13 13 13 13 13 13 13 13 13 12 12 11 11 10 9 8 7 7 7 8 8 8 8 8 7 7 7 6 5 6 6 7 7 8 9 9 9 9 9 10 10 10 10 10 10 10 10 10 10 11 11 11 10 10 9 9 8 8 7 7 6 6 5
13 13 13 13 13 12 12 12 12 11 11 11 11 10 10 9 8 8 7 6 6 5 5 5 6 6 6 6 5 5 5 5 4 4 4 5 5 6 6 7 7 7 7 7 7 8 8 9 9 9 9 9 9 9 9 9 8 8 7 7 6 6 5 5 4 4 4 3 3
12 12 12 11 11 11 10 9 9 9 8 8 8 7 6 5 5 4 4 3 3 3 4 5 5 5 4 4 4 4 4 3 3 3 4 4 5 5 5 5 6 6 6 6 6 7 7 7 8 8 7 7 7 7 6 6 5 5 4 4 3 3 3 2 2 2 1 1 1
11 11 10 10 9 8 8 7 7 6 6 5 5 4 3 3 2 2 2 2 3 4 4 5 4 4 4 3 3 3 3 4 4 4 4 4 5 5 5 5 6 6 6 6 6 6 7 6 6 6 6 5 5 4 4 3 2 2 1 1 1 1 1 1 1 1 2 2 2
10 9 8 7 6 6 6 5 5 5 4 3 2 2 1 1 1 2 2 3 4 4 5 5 4 4 4 4 4 4 4 5 5 6 6 6 6 6 6 6 6 5 5 5 6 6 5 5 4 4 3 3 2 2 1 0 0 1 1 1 1 1 2 2 2 2 3 3 3
7 6 6 5 5 4 4 4 4 3 2 2 1 1 1 1 2 2 3 4 4 5 5 5 5 5 5 5 5 5 5 6 6 6 6 6 6 6 5 5 4 4 4 4 4 4 3 2 2 1 1 1 1 2 2 2 3 3 3 3 3 2 3 3 3 3 3 3 3
5 4 4 3 3 3 3 3 3 2 2 1 1 1 1 2 2 3 4 4 5 5 5 5 5 5 5 5 5 5 5 5 5 5 5 5 5 4 4 3 3 3 3 3 2 1 1 1 2 2 2 3 4 4 4 4 4 4 3 3 3 3 3 3 3 3 3 3 3
3 3 3 2 2 2 3 3 2 2 1 1 1 2 2 3 3 4 4 5 5 5 5 5 5 5 4 4 4 4 4 4 4 4 3 3 3 3 3 2 2 2 2 2 2 3 3 3 4 4 5 5 5 5 5 4 4 4 3 3 3 2 2 2 2 2 2 2 2
2 2 2 2 2 2 2 2 2 1 1 1 2 3 3 3 4 4 4 4 4 4 4 4 4 3 3 3 4 4 4 3 3 3 3 2 2 2 2 2 3 3 4 5 5 5 5 5 5 5 5 5 5 5 4 4 3 3 3 2 2 2 3 3 3 3 3 3 3
3 2 2 2 2 2 2 2 1 1 2 2 3 3 3 3 3 3 3 3 3 3 3 3 2 2 3 3 3 4 4 4 3 3 3 3 2 2 3 3 4 6 6 7 7 6 6 5 5 5 5 5 4 4 3 3 2 2 2 3 3 3 3 4 4 4 5 5 5
3 3 2 2 2 2 2 1 1 2 2 3 3 3 3 2 2 2 2 2 3 3 3 2 2 3 3 3 3 4 4 4 4 4 4 3 3 4 4 5 6 7 7 7 7 6 5 5 5 4 4 3 3 3 2 2 2 3 3 3 4 4 4 5 5 6 6 7 7
3 3 3 2 2 2 2 2 2 2 3 3 3 2 2 1 1 2 2 3 3 3 3 3 3 4 4 4 4 5 5 5 5 6 5 5 5 5 6 7 7 7 7 7 6 5 4 4 3 3 3 3 2 2 3 3 3 4 4 4 5 5 6 6 7 7 8 8 9
4 3 3 2 2 2 2 2 2 2 3 3 2 2 2 2 2 3 3 3 3 4 4 5 5 5 5 5 6 6 7 7 8 7 7 7 6 6 6 7 7 7 6 6 5 4 3 3 2 2 3 3 3 3 4 4 5 5 5 6 6 7 7 7 8 8 8 9 9
4 3 3 2 2 3 3 3 2 2 2 2 2 3 3 3 3 4 4 4 5 6 7 7 7 7 7 7 8 8 9 9 9 9 8 7 7 6 6 5 6 5 5 4 4 3 3 3 3 3 3 4 4 5 5 5 6 6 6 6 7 7 7 8 8 8 8 9 9
4 3 3 3 3 3 3 3 3 3 3 3 4 4 4 5 5 5 6 7 8 8 9 9 9 9 9 9 10 10 10 10 9 9 8 7 6 5 4 4 4 4 4 4 3 3 3 3 3 4 4 5 5 5 5 6 6 6 7 7 7 7 8 8 8 8 8 8 8
4 4 4 4 4 4 4 4 4 4 5 5 5 6 6 7 7 8 9 9 10 10 10 10 10 10 10 10 10 10 9 9 8 8 7 7 6 5 4 4 4 4 4 4 3 3 4 4 4 4 5 5 5 5 6 6 7 7 7 7 8 8 8 8 8 8 8 8 8
5 5 5 5 5 5 5 5 5 6 7 7 7 8 9 9 10 11 11 11 11 11 11 11 11 11 11 10 9 9 8 8 7 6 6 6 6 5 5 4 4 4 4 4 4 4 4 4 4 5 5 5 6 6 7 7 7 8 8 8 8 8 8 8 8 8 8 8 8
6 6 6 6 6 6 6 7 7 8 9 9 10 10 11 12 13 14 14 13 12 12 12 12 11 11 10 9 8 8 7 7 6 6 6 6 6 6 5 5 5 5 5 5 5 5 5 5 5 5 6 6 6 7 7 7 7 7 7 7 7 7 8 8 8 8 8 8 8
7 7 7 7 7 7 8 9 9 10 11 11 12 13 14 15 15 15 15 14 13 12 11 11 11 10 9 8 7 7 6 6 6 6 6 6 6 6 6 6 5 5 5 5 5 5 5 5 5 6 6 6 6 6 7 7 6 6 6 6 6 7 7 7 7 7 7 8 8
8 8 8 8 8 9 10 11 11 12 12 13 15 15 16 16 16 16 15 14 13 12 11 10 10 9 8 8 7 7 6 6 6 6 6 6 6 6 6 6 5 5 5 5 5 5 5 5 5 5 6 6 6 6 6 6 6 6 6 6 6 6 6 7 7 7 7 7 7
9 10 10 10 10 11 12 13 13 14 14 15 16 16 16 16 16 15 14 13 12 11 10 9 8 8 7 7 7 7 6 6 7 6 6 6 6 6 6 5 5 5 5 5 5 5 5 5 5 5 5 6 6 6 7 6 6 6 7 7 7 7 7 7 7 7 7 7 7
Wind_Direction
232 232 233 233 234 235 236 236 237 238 239 239 239 240 241 241 240 240 239 239 239 239 240 240 241 243 243 244 243 242 243 247 251 254 256 258 259 260 261 263 265 265 266 268 270 272 272 273 275 276 276 277 277 277 277 278 278 280 281 282 281 280 279 279 282 285 287 287 287
231 231 232 233 234 235 236 237 237 238 239 240 240 241 240 237 235 235 235 235 234 235 236 238 239 241 241 242 242 242 244 247 251 255 257 260 262 263 263 262 261 262 264 267 269 270 271 273 274 275 276 276 276 276 277 278 279 281 281 279 277 278 282 288 291 291 291 289 288
228 230 231 233 234 234 234 236 237 239 240 241 241 241 239 235 233 233 234 234 234 234 235 235 237 238 238 238 239 242 246 250 253 256 258 260 261 260 259 258 259 261 263 266 267 269 270 272 273 275 275 275 275 276 276 277 278 278 277 277 280 286 291 293 292 291 289 288 287
225 227 229 231 232 232 231 231 233 235 237 238 239 238 237 236 234 233 233 234 236 237 238 238 238 238 237 238 241 246 250 252 253 254 254 254 254 254 254 256 258 261 263 265 266 268 269 270 272 273 274 274 274 274 275 275 275 275 277 282 287 291 293 292 291 290 290 289 288
223 226 228 230 231 231 230 230 231 232 234 235 235 236 236 235 235 234 234 234 235 237 239 240 240 239 239 240 244 247 249 249 248 247 246 247 248 250 252 255 258 260 262 263 265 266 268 269 270 271 271 272 272 272 272 273 275 278 282 286 289 291 291 292 292 291 291 291 290
222 225 228 230 231 231 231 231 231 232 234 237 237 238 238 237 237 236 234 233 234 236 238 239 241 242 243 244 245 245 245 245 244 243 244 245 248 250 253 255 257 259 261 262 264 265 267 268 269 269 269 270 271 272 273 275 278 282 286 289 290 291 292 292 292 292 292 292 291
223 225 227 229 230 230 230 231 232 234 237 239 240 240 240 240 240 239 237 237 237 239 240 241 243 244 246 247 247 246 245 246 246 247 248 249 251 252 254 256 257 259 261 262 264 266 267 267 268 268 269 270 271 273 276 279 282 285 288 290 291 291 291 291 291 292 292 292 292
228 229 230 230 230 230 230 231 233 234 236 239 241 241 242 242 242 242 242 242 241 242 243 244 245 247 248 249 249 248 248 248 249 251 252 252 253 255 256 257 259 260 262 264 266 267 267 268 268 268 269 271 273 275 278 281 284 287 289 290 290 290 289 289 290 290 291 292 293
234 234 235 234 234 234 234 236 237 238 240 242 244 245 247 247 247 248 247 246 246 247 247 247 247 249 250 251 251 251 251 251 252 253 254 255 256 257 258 260 261 263 264 266 266 267 267 268 268 269 270 272 274 277 280 283 286 288 289 289 288 287 287 287 288 289 291 292 293
239 240 240 240 240 241 242 244 246 247 249 251 253 255 256 257 258 257 256 254 254 253 251 251 251 251 252 253 254 254 255 255 256 256 257 258 258 259 261 262 263 264 265 265 266 266 267 268 269 270 272 274 277 279 282 284 287 288 288 287 286 285 284 286 287 289 291 292 292
244 245 245 246 246 248 249 250 252 254 256 258 261 263 264 265 265 264 263 262 260 259 257 256 255 255 256 256 257 258 258 259 260 260 260 260 260 261 261 262 263 264 265 265 266 267 268 270 271 273 275 277 279 281 283 285 287 287 287 286 285 284 285 286 288 289 290 290 290
249 249 250 250 251 252 253 254 256 258 260 262 264 265 265 265 265 265 264 264 262 261 260 259 258 258 258 258 259 259 260 260 261 261 261 261 261 261 262 263 264 266 267 268 270 271 272 274 275 276 278 279 281 283 284 286 287 287 287 287 287 287 288 289 290 290 290 289 289
252 253 253 253 254 254 255 257 258 260 261 262 263 263 263 263 263 262 262 262 261 260 260 259 259 258 258 258 259 259 259 260 260 261 261 262 263 263 264 265 267 269 270 272 273 275 276 277 277 278 279 280 282 283 285 286 288 288 289 289 290 291 292 292 292 292 291 290 289
255 255 255 255 255 256 256 257 258 259 260 261 260 260 260 259 259 258 258 258 258 258 258 258 258 258 258 259 259 259 260 260 260 261 261 263 263 265 266 267 269 270 272 273 275 276 277 278 278 279 279 280 282 283 285 287 289 290 291 292 293 294 294 294 294 294 293 291 289
255 255 255 255 255 256 256 257 258 258 258 258 258 257 257 256 255 255 255 255 255 256 256 257 258 259 259 260 261 261 261 262 262 262 262 262 263 264 265 267 268 269 271 273 274 276 277 278 279 279 279 280 282 284 287 289 291 292 293 294 294 295 295 295 295 294 292 290 288
254 255 255 255 255 256 256 257 257 257 257 256 256 255 255 255 255 255 255 255 256 256 257 258 259 260 261 262 262 263 263 264 264 264 264 264 264 265 265 266 267 268 270 272 274 276 278 279 279 280 281 282 284 286 288 290 291 292 293 294 294 294 294 293 292 291 290 288 287
254 254 255 255 256 257 257 257 257 257 257 256 256 256 255 256 256 257 257 257 258 259 259 260 261 262 263 264 264 265 266 266 266 266 266 265 265 265 266 266 267 268 270 272 275 277 279 280 280 281 282 283 285 287 288 289 289 289 290 290 291 291 290 290 289 288 287 287 287
253 254 255 256 257 257 257 257 258 257 257 257 257 257 257 258 258 259 259 260 261 261 262 263 263 264 264 265 265 265 265 265 265 264 264 265 265 266 268 269 269 271 272 274 277 279 280 281 281 282 283 284 285 285 285 285 285 285 286 287 288 288 288 288 288 288 288 288 290
254 255 256 257 257 258 258 258 259 259 258 259 259 259 259 259 259 259 260 261 262 263 264 264 264 264 263 263 262 261 260 259 259 260 262 266 269 272 274 275 276 276 276 278 278 280 280 281 281 281 282 282 282 282 281 282 283 285 286 288 288 289 289 289 289 290 290 291 292
255 256 257 257 258 259 259 260 260 260 260 260 260 259 258 258 257 257 257 258 260 260 261 261 262 262 261 258 257 256 256 256 257 261 267 273 279 281 281 280 280 279 279 279 279 279 279 279 279 279 279 279 279 279 281 283 286 288 290 290 291 291 291 291 292 293 293 294 295
256 257 257 258 259 260 260 261 261 261 260 258 257 255 254 254 254 253 253 254 255 256 258 263 265 266 265 261 258 257 258 259 263 269 277 281 283 282 281 281 280 280 281 280 279 279 277 277 277 277 277 278 279 282 285 288 291 292 292 292 292 292 292 294 294 295 296 297 298
256 257 258 259 260 261 262 261 260 259 256 254 252 250 249 249 249 249 249 250 252 260 270 278 280 279 277 275 272 269 268 266 268 274 277 280 281 281 281 282 284 286 287 284 281 278 276 275 275 276 279 282 285 288 290 292 293 293 292 292 292 294 295 297 299 299 301 302 305
256 257 258 259 261 261 261 260 258 254 252 249 246 243 241 241 241 243 247 256 271 286 294 296 296 295 294 291 288 285 282 279 276 276 277 280 283 286 289 292 295 296 293 286 281 278 276 276 278 280 283 287 290 291 291 290 290 290 291 293 296 299 303 308 315 322 333 345 5
256 257 259 260 260 260 257 254 251 247 245 242 239 236 233 236 242 257 279 296 303 304 303 302 302 303 302 300 295 291 288 286 287 287 287 288 291 295 299 300 299 294 288 282 278 277 277 279 282 284 286 287 287 286 284 283 284 287 293 306 322 334 5 33 44 54 61 63 63
255 257 258 258 255 251 246 241 238 236 236 237 233 234 240 272 297 306 310 308 304 300 299 298 298 298 296 294 291 287 286 287 289 292 295 296 296 297 297 295 292 285 281 278 277 278 278 279 280 280 280 278 275 273 272 275 67 80 82 81 78 79 86 86 80 75 71 68 66
252 254 253 250 245 238 233 229 225 224 225 227 232 273 311 310 307 305 303 301 297 294 293 293 293 292 290 289 287 287 287 288 289 291 293 294 293 292 289 285 281 277 275 274 275 276 275 271 262 253 231 175 127 112 105 98 92 88 89 92 92 89 87 83 79 73 64 57 52
248 248 246 240 236 231 226 219 212 209 211 226 283 306 300 290 289 291 293 295 294 292 292 292 292 291 289 289 288 288 286 285 284 283 283 282 280 279 275 270 263 260 259 257 251 237 188 146 130 123 115 111 107 105 102 100 95 94 95 95 95 92 84 73 67 59 52 43 34
246 243 238 233 232 225 214 203 195 193 202 250 276 274 272 273 280 286 291 294 294 296 297 296 293 291 289 285 281 278 275 272 270 266 263 259 255 252 250 244 235 222 203 171 141 125 116 111 109 108 107 105 103 101 100 100 99 97 95 91 86 77 67 55 45 35 22 10 356
239 235 233 235 229 213 197 189 183 194 233 259 259 258 262 270 279 286 292 296 300 301 301 297 291 285 277 268 260 257 252 248 241 233 225 220 217 216 216 206 186 163 142 126 117 111 108 106 104 102 100 99 99 97 97 96 95 89 81 67 53 40 29 18 7 357 344 333 326
233 232 236 236 223 203 190 183 190 234 258 255 253 256 263 275 284 291 295 298 297 293 285 277 271 260 248 242 237 232 223 213 204 194 184 174 172 170 165 155 143 132 122 114 110 107 103 101 97 94 92 91 91 90 87 80 71 59 45 31 20 9 359 350 341 333 326 320 318
233 235 239 239 226 207 193 196 228 257 261 256 255 260 268 279 287 290 286 283 274 264 253 241 230 221 216 213 209 203 194 183 171 157 146 139 137 136 134 131 125 119 114 109 106 102 98 93 89 86 82 81 77 70 59 46 31 19 10 1 352 344 337 331 326 322 318 317 316
236 240 242 242 231 213 203 210 235 254 258 256 256 260 264 258 257 259 257 252 246 236 222 205 192 188 188 187 181 174 164 151 139 130 125 123 123 124 123 121 117 112 108 105 101 96 91 84 79 72 64 54 44 29 17 7 359 354 347 342 336 331 327 323 321 318 317 316 314
236 240 241 237 225 209 202 210 229 245 250 247 241 227 216 212 223 232 232 225 213 196 179 168 165 162 160 157 153 147 139 131 126 122 121 119 118 117 116 113 109 105 102 98 94 87 79 69 56 41 30 20 10 2 358 353 348 343 340 336 331 328 325 323 320 318 317 315 314
234 234 229 219 209 198 194 203 218 228 225 212 200 193 193 195 197 200 198 192 178 165 157 153 151 148 144 140 136 132 129 126 125 123 120 117 113 110 108 104 100 96 92 88 81 70 57 41 28 18 12 5 1 356 352 348 344 340 337 332 329 326 324 322 320 318 316 315 315
223 215 205 197 189 184 184 191 198 194 186 176 176 179 182 181 177 174 170 165 158 152 149 146 143 139 136 133 130 128 127 126 125 123 118 113 106 101 95 92 88 83 79 73 62 49 36 26 18 12 7 2 358 353 349 345 341 337 334 330 327 325 323 322 320 318 318 316 315
203 192 185 179 176 175 175 178 178 172 166 165 167 168 168 165 161 157 153 149 147 145 142 139 136 132 130 128 128 127 127 125 123 119 113 107 98 90 81 73 71 68 63 55 46 36 27 19 14 9 4 359 356 351 347 343 339 335 333 330 328 326 324 322 321 319 318 317 315
181 173 170 168 168 167 168 167 164 160 158 159 159 158 155 151 148 145 143 141 139 137 136 133 130 127 126 125 126 126 124 121 116 110 104 97 89 80 68 58 55 52 48 40 34 25 18 12 7 4 1 357 354 350 346 342 339 336 333 332 329 326 323 322 320 318 317 316 315
166 162 161 162 162 161 161 160 157 156 156 155 153 150 147 145 142 140 138 136 134 132 131 130 128 126 125 125 124 123 120 115 109 100 92 84 77 68 58 48 42 37 33 28 21 15 9 4 1 358 357 356 353 350 346 343 339 336 334 331 328 325 323 321 320 319 318 316 315
157 156 157 158 158 158 156 155 154 154 153 151 148 146 144 142 140 138 136 134 133 132 131 130 129 128 127 125 123 120 115 108 99 90 79 70 63 56 47 38 29 22 19 17 12 8 4 1 359 357 356 355 353 350 347 344 340 336 332 330 327 325 323 324 324 324 323 320 319
152 153 154 155 155 155 154 153 153 152 150 148 146 144 143 142 140 138 136 134 134 134 134 133 133 132 130 127 123 117 107 97 87 77 68 59 51 43 35 26 16 9 7 9 8 6 4 3 1 358 355 354 352 350 348 345 342 338 334 331 328 327 326 327 328 329 329 326 323
151 152 152 153 153 153 152 152 151 150 149 147 145 144 143 142 140 139 136 135 135 136 137 137 137 136 133 128 120 109 97 85 75 66 57 48 39 31 23 15 6 359 359 2 3 2 3 4 2 359 356 354 353 351 349 348 345 342 339 336 333 331 330 330 331 331 332 331 328
Height
1508 1508 1508 1508 1508 1508 1508 1509 1509 1509 1509 1510 1510 1510 1510 1510 1511 1511 1511 1511 1512 1512 1512 1513 1513 1514 1514 1514 1515 1515 1515 1516 1516 1517 1517 1517 1517 1517 1517 1517 1518 1518 1518 1518 1519 1519 1519 1519 1519 1519 1519 1519 1519 1520 1520 1520 1520 1520 1520 1520 1520 1520 1520 1519 1518 1518 1518 1517 1517
1507 1507 1507 1507 1507 1507 1508 1508 1508 1508 1508 1509 1509 1509 1509 1510 1510 1510 1510 1510 1510 1511 1511 1512 1512 1513 1513 1514 1514 1514 1514 1515 1515 1516 1516 1516 1516 1516 1516 1516 1517 1517 1517 1517 1517 1517 1518 1518 1518 1518 1518 1518 1518 1518 1518 1518 1518 1518 1518 1518 1518 1518 1517 1517 1517 1516 1516 1516 1515
1506 1506 1507 1507 1507 1507 1507 1507 1507 1507 1507 1508 1508 1508 1508 1509 1509 1509 1509 1509 1509 1510 1510 1511 1511 1512 1512 1512 1513 1513 1513 1514 1514 1514 1514 1514 1514 1515 1515 1515 1516 1516 1516 1516 1516 1516 1517 1517 1517 1516 1516 1516 1517 1517 1517 1517 1517 1517 1517 1516 1516 1515 1515 1515 1515 1514 1514 1513 1513
1505 1506 1506 1506 1506 1506 1506 1506 1506 1507 1507 1507 1507 1507 1507 1508 1508 1508 1508 1508 1509 1509 1509 1509 1510 1510 1511 1511 1512 1512 1512 1513 1513 1513 1513 1513 1513 1514 1514 1514 1515 1515 1515 1515 1515 1515 1515 1515 1515 1515 1515 1515 1515 1515 1515 1515 1515 1515 1515 1514 1514 1514 1514 1513 1513 1513 1512 1512 1511
1505 1505 1505 1505 1505 1505 1506 1506 1506 1506 1506 1506 1506 1507 1507 1507 1507 1507 1507 1507 1508 1508 1508 1509 1509 1509 1510 1510 1510 1511 1511 1512 1512 1512 1512 1512 1512 1513 1513 1513 1513 1514 1514 1514 1514 1514 1514 1514 1514 1514 1514 1513 1513 1513 1513 1513 1513 1513 1513 1513 1513 1512 1512 1512 1512 1511 1511 1510 1510
1504 1504 1505 1505 1505 1505 1505 1505 1506 1506 1506 1506 1506 1506 1506 1506 1506 1507 1507 1507 1507 1507 1508 1508 1508 1509 1509 1509 1509 1510 1510 1510 1511 1511 1511 1511 1512 1512 1512 1512 1512 1512 1512 1512 1512 1512 1512 1512 1512 1512 1512 1512 1512 1512 1512 1512 1512 1512 1512 1511 1511 1511 1511 1510 1510 1509 1509 1509 1508
1504 1504 1504 1504 1505 1505 1505 1505 1505 1505 1505 1505 1505 1505 1505 1506 1506 1506 1506 1506 1507 1507 1507 1507 1508 1508 1508 1508 1508 1509 1509 1510 1510 1510 1510 1511 1511 1511 1511 1511 1511 1511 1511 1511 1511 1511 1511 1511 1511 1511 1511 1511 1511 1511 1510 1510 1510 1510 1510 1510 1509 1509 1509 1509 1508 1508 1507 1507 1507
1504 1504 1504 1504 1504 1505 1505 1505 1505 1505 1505 1505 1505 1505 1505 1505 1505 1505 1506 1506 1506 1506 1507 1507 1507 1507 1507 1507 1508 1508 1508 1509 1509 1509 1509 1509 1510 1510 1510 1510 1510 1510 1510 1510 1510 1510 1510 1510 1510 1509 1509 1509 1509 1509 1509 1509 1509 1508 1508 1508 1508 1507 1507 1507 1507 1506 1506 1506 1505
1503 1504 1504 1504 1504 1504 1504 1504 1504 1504 1505 1505 1505 1505 1505 1505 1505 1505 1505 1505 1505 1506 1506 1506 1506 1506 1507 1507 1507 1507 1507 1508 1508 1508 1508 1508 1508 1508 1508 1508 1508 1508 1508 1508 1508 1508 1508 1508 1508 1508 1508 1508 1508 1508 1507 1507 1507 1507 1507 1506 1506 1506 1506 1505 1505 1505 1504 1504 1503
1503 1503 1503 1503 1503 1504 1504 1504 1504 1504 1504 1504 1504 1504 1504 1504 1504 1504 1504 1505 1505 1505 1505 1505 1505 1506 1506 1506 1506 1506 1507 1507 1507 1507 1507 1507 1507 1507 1507 1507 1507 1507 1507 1507 1507 1507 1507 1507 1507 1507 1507 1507 1507 1506 1506 1506 1506 1505 1505 1505 1504 1504 1504 1504 1503 1503 1502 1502 1502
1502 1502 1502 1503 1503 1503 1503 1503 1503 1503 1503 1503 1503 1503 1503 1503 1503 1504 1504 1504 1504 1504 1504 1504 1505 1505 1505 1505 1505 1505 1505 1505 1506 1506 1506 1506 1506 1506 1506 1505 1505 1505 1505 1505 1505 1505 1505 1505 1505 1505 1505 1505 1505 1505 1504 1504 1504 1504 1503 1503 1503 1503 1502 1502 1502 1502 1501 1501 1500
1501 1502 1502 1502 1502 1502 1502 1502 1502 1502 1502 1502 1502 1502 1502 1502 1502 1502 1503 1503 1503 1503 1503 1503 1503 1504 1504 1504 1504 1504 1504 1504 1504 1504 1504 1504 1504 1504 1504 1504 1504 1504 1504 1504 1504 1504 1504 1504 1504 1504 1504 1503 1503 1503 1503 1502 1502 1502 1502 1502 1502 1501 1501 1501 1500 1500 1500 1499 1499
1500 1501 1501 1501 1501 1501 1501 1501 1501 1501 1501 1501 1501 1502 1502 1502 1502 1502 1502 1502 1502 1502 1502 1502 1502 1502 1502 1502 1502 1502 1502 1502 1502 1502 1502 1502 1503 1503 1503 1503 1503 1502 1502 1502 1503 1503 1502 1502 1502 1502 1502 1502 1502 1502 1501 1501 1501 1501 1501 1500 1500 1500 1500 1499 1499 1499 1498 1498 1497
1499 1499 1500 1500 1500 1500 1500 1500 1500 1500 1500 1500 1500 1500 1500 1500 1500 1501 1501 1501 1501 1501 1501 1501 1501 1501 1501 1501 1501 1501 1501 1501 1501 1501 1501 1501 1501 1501 1502 1502 1502 1501 1501 1501 1501 1501 1501 1501 1501 1501 1501 1500 1500 1500 1500 1500 1500 1499 1499 1499 1499 1498 1498 1498 1497 1497 1497 1496 1496
1498 1498 1498 1498 1498 1499 1499 1499 1499 1499 1499 1499 1499 1499 1499 1499 1499 1499 1499 1499 1499 1499 1499 1499 1499 1499 1499 1499 1499 1499 1499 1499 1499 1500 1500 1500 1500 1500 1500 1500 1500 1500 1500 1500 1500 1500 1500 1500 1499 1499 1499 1499 1499 1499 1499 1499 1498 1498 1498 1498 1498 1497 1497 1497 1496 1496 1496 1495 1495
1497 1497 1497 1497 1497 1497 1498 1498 1498 1498 1498 1498 1498 1498 1498 1498 1498 1498 1498 1498 1498 1498 1498 1498 1498 1498 1498 1498 1498 1498 1498 1498 1498 1498 1498 1498 1498 1498 1498 1498 1498 1498 1499 1499 1499 1498 1498 1498 1498 1498 1498 1498 1498 1498 1498 1497 1497 1497 1497 1497 1497 1496 1496 1495 1495 1495 1494 1494 1494
1496 1496 1496 1496 1496 1497 1497 1497 1497 1497 1497 1497 1497 1497 1497 1497 1497 1497 1497 1497 1497 1497 1497 1497 1497 1497 1497 1496 1496 1496 1497 1496 1497 1497 1497 1497 1497 1497 1497 1497 1497 1497 1497 1497 1497 1497 1497 1497 1497 1497 1497 1497 1497 1497 1497 1497 1497 1496 1496 1496 1495 1495 1494 1494 1494 1493 1493 1493 1493
1495 1495 1495 1495 1495 1495 1496 1496 1496 1496 1496 1496 1496 1496 1496 1496 1496 1496 1496 1496 1496 1495 1495 1495 1495 1495 1495 1495 1495 1495 1495 1495 1495 1495 1495 1495 1495 1495 1495 1496 1496 1496 1496 1496 1496 1496 1496 1496 1496 1496 1496 1496 1496 1496 1496 1496 1495 1495 1495 1494 1494 1494 1493 1493 1493 1492 1492 1492 1492
1494 1494 1494 1494 1494 1494 1494 1494 1494 1495 1495 1494 1494 1494 1494 1494 1494 1494 1494 1494 1494 1494 1494 1494 1494 1494 1494 1493 1493 1493 1493 1493 1493 1493 1494 1494 1494 1494 1494 1494 1495 1495 1495 1495 1495 1495 1495 1495 1495 1495 1495 1495 1495 1495 1494 1494 1494 1494 1493 1493 1493 1492 1492 1492 1492 1491 1491 1491 1490
1492 1493 1493 1493 1493 1493 1493 1493 1493 1493 1493 1493 1493 1493 1493 1493 1493 1493 1493 1493 1493 1493 1493 1493 1493 1492 1492 1492 1492 1492 1492 1492 1492 1492 1493 1493 1493 1493 1493 1493 1494 1494 1494 1494 1494 1494 1494 1494 1494 1494 1494 1494 1494 1494 1493 1493 1493 1493 1492 1492 1492 1492 1491 1491 1490 1490 1490 1489 1489
1492 1492 1492 1492 1492 1492 1492 1492 1492 1492 1492 1492 1492 1492 1492 1492 1492 1492 1492 1492 1492 1492 1492 1492 1492 1492 1492 1492 1492 1492 1492 1492 1492 1492 1492 1492 1492 1492 1493 1493 1493 1493 1493 1493 1493 1493 1493 1493 1493 1493 1493 1493 1493 1492 1492 1492 1492 1492 1492 1491 1491 1490 1490 1490 1489 1489 1488 1488 1488
1490 1490 1491 1491 1491 1491 1491 1491 1491 1491 1491 1491 1491 1491 1491 1491 1491 1491 1491 1491 1491 1491 1491 1491 1491 1491 1491 1491 1491 1491 1491 1491 1491 1491 1491 1492 1492 1492 1492 1492 1492 1492 1492 1492 1492 1492 1492 1492 1492 1492 1492 1492 1492 1492 1492 1491 1491 1491 1490 1490 1490 1489 1489 1488 1488 1488 1487 1487 1487
1489 1489 1489 1489 1490 1490 1490 1490 1490 1490 1490 1490 1490 1490 1490 1490 1490 1490 1490 1490 1490 1490 1491 1491 1491 1490 1490 1490 1490 1490 1490 1491 1491 1491 1491 1491 1491 1491 1491 1491 1491 1491 1491 1491 1491 1492 1492 1492 1492 1492 1491 1491 1491 1491 1491 1490 1490 1490 1489 1489 1488 1488 1488 1487 1487 1487 1487 1487 1487
1488 1488 1488 1488 1488 1488 1488 1488 1488 1488 1488 1488 1488 1489 1489 1489 1489 1489 1489 1489 1490 1490 1490 1490 1490 1490 1490 1490 1490 1490 1490 1490 1490 1490 1491 1491 1491 1491 1491 1491 1491 1491 1491 1491 1491 1491 1491 1491 1491 1491 1490 1490 1490 1490 1490 1489 1489 1489 1488 1488 1488 1487 1487 1487 1487 1487 1487 1487 1487
1487 1487 1487 1487 1487 1487 1487 1487 1487 1487 1487 1487 1488 1488 1488 1488 1488 1488 1489 1489 1489 1489 1489 1489 1489 1489 1489 1489 1490 1490 1490 1490 1490 1490 1490 1490 1490 1490 1490 1490 1490 1490 1490 1490 1490 1490 1490 1490 1490 1490 1490 1489 1489 1489 1489 1489 1488 1488 1488 1488 1487 1487 1487 1487 1487 1487 1487 1486 1486
1485 1485 1486 1486 1486 1486 1486 1486 1487 1487 1487 1487 1487 1487 1487 1487 1488 1488 1488 1488 1489 1489 1489 1489 1489 1489 1489 1489 1489 1489 1489 1489 1489 1489 1489 1489 1490 1490 1490 1490 1490 1490 1490 1490 1490 1490 1490 1490 1489 1489 1489 1489 1489 1489 1488 1488 1488 1488 1488 1487 1487 1487 1487 1487 1487 1487 1486 1486 1486
1484 1484 1484 1484 1485 1485 1485 1485 1486 1486 1486 1486 1486 1487 1487 1487 1487 1488 1488 1488 1488 1488 1488 1488 1488 1488 1489 1489 1489 1489 1489 1489 1489 1489 1489 1489 1489 1489 1489 1489 1489 1489 1490 1490 1490 1489 1489 1489 1489 1489 1489 1489 1489 1488 1488 1488 1488 1488 1488 1487 1487 1487 1487 1487 1487 1486 1486 1486 1486
1483 1483 1483 1483 1484 1484 1484 1484 1485 1485 1485 1486 1486 1486 1487 1487 1487 1487 1487 1487 1487 1487 1488 1488 1488 1488 1488 1488 1488 1488 1488 1489 1489 1489 1489 1489 1489 1489 1489 1489 1489 1489 1489 1489 1489 1489 1489 1489 1489 1489 1489 1489 1488 1488 1488 1488 1488 1488 1488 1487 1487 1487 1487 1487 1486 1486 1486 1486 1486
1482 1482 1483 1483 1483 1483 1483 1484 1484 1484 1485 1485 1486 1486 1486 1487 1487 1487 1487 1487 1487 1487 1487 1487 1487 1487 1488 1488 1488 1488 1488 1488 1489 1489 1489 1489 1489 1489 1489 1489 1489 1489 1489 1489 1489 1489 1489 1489 1489 1489 1489 1489 1488 1488 1488 1488 1488 1488 1488 1488 1487 1487 1487 1487 1487 1486 1486 1486 1486
1482 1482 1482 1482 1482 1482 1483 1483 1483 1484 1484 1485 1485 1486 1486 1486 1486 1486 1486 1487 1487 1487 1487 1487 1487 1487 1487 1488 1488 1488 1488 1488 1489 1489 1489 1489 1489 1489 1489 1489 1489 1489 1489 1489 1489 1489 1489 1489 1489 1489 1489 1489 1489 1489 1489 1489 1488 1488 1488 1488 1487 1487 1487 1487 1487 1487 1486 1486 1486
1481 1481 1482 1482 1482 1482 1482 1483 1483 1484 1484 1484 1485 1485 1485 1485 1486 1486 1486 1486 1486 1487 1487 1487 1487 1487 1487 1488 1488 1488 1488 1488 1489 1489 1489 1489 1489 1489 1489 1489 1489 1489 1489 1489 1489 1489 1489 1489 1489 1489 1489 1489 1489 1489 1489 1489 1488 1488 1488 1488 1487 1487 1487 1487 1487 1486 1486 1486 1486
1481 1481 1481 1481 1481 1482 1482 1482 1483 1483 1484 1484 1484 1485 1485 1485 1485 1485 1486 1486 1486 1486 1487 1487 1487 1487 1488 1488 1488 1488 1488 1488 1489 1489 1489 1489 1489 1489 1489 1489 1489 1489 1489 1489 1490 1490 1490 1490 1490 1490 1490 1490 1489 1489 1489 1489 1488 1488 1488 1487 1487 1487 1487 1487 1486 1486 1486 1486 1485
1480 1480 1481 1481 1481 1481 1482 1482 1482 1483 1483 1484 1484 1484 1484 1485 1485 1485 1486 1486 1486 1487 1487 1487 1487 1488 1488 1488 1488 1488 1489 1489 1489 1489 1489 1490 1490 1490 1490 1490 1490 1490 1490 1490 1490 1490 1490 1490 1490 1490 1490 1490 1489 1489 1489 1488 1488 1488 1487 1487 1487 1487 1487 1486 1486 1486 1485 1485 1485
1480 1480 1480 1480 1481 1481 1482 1482 1482 1483 1483 1483 1484 1484 1484 1484 1485 1485 1486 1486 1487 1487 1487 1487 1488 1488 1488 1488 1488 1489 1489 1489 1489 1490 1490 1490 1490 1490 1490 1490 1490 1490 1490 1490 1490 1490 1490 1490 1490 1490 1490 1489 1489 1489 1488 1488 1488 1487 1487 1487 1487 1487 1486 1486 1486 1485 1485 1485 1485
1479 1479 1480 1480 1481 1481 1482 1482 1482 1482 1483 1483 1483 1484 1484 1484 1485 1485 1486 1487 1487 1487 1487 1488 1488 1488 1488 1489 1489 1489 1489 1490 1490 1490 1490 1490 1490 1490 1490 1490 1490 1490 1490 1490 1490 1490 1490 1490 1490 1489 1489 1489 1489 1488 1488 1488 1488 1487 1487 1487 1487 1486 1486 1486 1485 1485 1485 1485 1484
1479 1479 1480 1480 1480 1481 1482 1482 1482 1482 1483 1483 1483 1484 1484 1485 1485 1486 1487 1487 1487 1487 1488 1488 1488 1489 1489 1489 1489 1490 1490 1490 1490 1490 1490 1490 1491 1491 1491 1491 1490 1490 1490 1490 1490 1490 1490 1490 1490 1489 1489 1489 1488 1488 1488 1488 1487 1487 1487 1487 1486 1486 1486 1485 1485 1485 1485 1484 1484
1479 1479 1479 1480 1481 1481 1482 1482 1482 1482 1482 1483 1483 1484 1484 1485 1486 1486 1487 1487 1488 1488 1488 1488 1489 1489 1489 1490 1490 1490 1491 1491 1491 1491 1491 1491 1491 1491 1491 1491 1490 1490 1490 1490 1490 1490 1490 1489 1489 1489 1489 1488 1488 1488 1487 1487 1487 1487 1486 1486 1486 1486 1485 1485 1485 1485 1484 1484 1484
1478 1479 1479 1480 1481 1481 1482 1482 1482 1482 1483 1483 1484 1484 1485 1485 1486 1487 1487 1487 1488 1488 1489 1489 1489 1490 1490 1490 1491 1491 1491 1491 1491 1491 1491 1491 1491 1491 1491 1491 1490 1490 1490 1490 1490 1490 1489 1489 1489 1489 1488 1488 1488 1487 1487 1487 1487 1486 1486 1486 1486 1485 1485 1485 1484 1484 1484 1484 1483
1478 1479 1479 1480 1481 1481 1482 1482 1482 1482 1483 1483 1484 1485 1485 1486 1486 1487 1487 1488 1488 1489 1489 1490 1490 1490 1491 1491 1491 1491 1491 1491 1491 1491 1491 1491 1491 1491 1491 1491 1490 1490 1490 1490 1490 1489 1489 1489 1488 1488 1488 1487 1487 1487 1487 1487 1486 1486 1486 1486 1485 1485 1485 1484 1484 1484 1483 1483 1483
1478 1479 1479 1480 1481 1481 1482 1482 1482 1483 1483 1484 1484 1485 1486 1486 1487 1487 1487 1488 1489 1489 1490 1490 1490 1491 1491 1491 1491 1491 1491 1491 1491 1491 1491 1491 1491 1491 1491 1491 1491 1490 1490 1490 1489 1489 1489 1488 1488 1488 1487 1487 1487 1487 1487 1486 1486 1486 1485 1485 1485 1485 1484 1484 1484 1484 1483 1483 1482
1478 1479 1480 1480 1481 1481 1482 1482 1483 1483 1484 1484 1485 1486 1486 1487 1487 1487 1488 1488 1489 1489 1490 1490 1491 1491 1491 1491 1491 1491 1491 1491 1491 1491 1491 1491 1491 1491 1491 1491 1490 1490 1490 1489 1489 1489 1489 1488 1488 1488 1487 1487 1487 1487 1486 1486 1486 1485 1485 1485 1484 1484 1484 1484 1483 1483 1483 1482 1482